Weather reports worldwide

Advertisment
Dieppe, France (7040): temperature & dewpoint: 20.09.2020 13:00:00 - 26.09.2020 13:00:00 (CEST)Dieppe, France (7040): temperature 5cm: 20.09.2020 13:00:00 - 26.09.2020 13:00:00 (CEST)Dieppe, France (7040): wind speed & gusts: 20.09.2020 13:00:00 - 26.09.2020 13:00:00 (CEST)Dieppe, France (7040): wind direction: 20.09.2020 13:00:00 - 26.09.2020 13:00:00 (CEST)Dieppe, France (7040): reduced air pressure: 20.09.2020 13:00:00 - 26.09.2020 13:00:00 (CEST)Dieppe, France (7040): visibility: 20.09.2020 13:00:00 - 26.09.2020 13:00:00 (CEST)Dieppe, France (7040): precipitation: 20.09.2020 13:00:00 - 26.09.2020 13:00:00 (CEST)
Date & Time tt [°C] td [°C] tt 5cm [°C] ff [km/h] ff [kn] fx [km/h] fx [kn] dd ppp [hPa] vv [km] rr [mm]
26.09.2020 13:00:00 11,8 5,6 12,3 39 21 56 30 NW 1009,9 - 0,0
26.09.2020 12:00:00 11,7 6,2 11,7 37 20 58 31 NW 1010,0 - 0,0
26.09.2020 11:00:00 11,3 6,0 10,9 42 23 59 32 NW 1009,9 13 0,0
26.09.2020 10:00:00 11,3 6,0 10,6 43 23 62 33 NW 1009,6 - 0,0
26.09.2020 09:00:00 11,3 6,6 9,9 44 24 68 37 NW 1009,4 - 0,0
26.09.2020 08:00:00 11,3 6,0 9,9 44 24 69 38 NW 1009,0 - 0,0
26.09.2020 07:00:00 11,6 6,1 10,3 48 26 72 39 NW 1008,9 - 0,0
26.09.2020 06:00:00 11,9 5,3 10,4 50 27 76 41 NW 1008,8 - 0,0
26.09.2020 05:00:00 12,2 6,2 10,3 49 26 76 41 NW 1008,6 - 0,0
26.09.2020 04:00:00 12,3 5,9 10,8 57 31 79 43 NW 1008,5 - 0,0
26.09.2020 03:00:00 12,8 6,2 11,2 56 31 78 42 NW 1008,5 - 0,0
26.09.2020 02:00:00 13,2 6,3 11,3 54 29 80 43 NW 1008,6 - 0,0
26.09.2020 01:00:00 13,5 6,1 11,6 61 33 84 45 NW 1008,4 - 0,0
26.09.2020 00:00:00 13,7 5,1 11,8 63 34 86 47 NW 1008,4 - 0,0
25.09.2020 23:00:00 14,0 5,1 11,8 60 32 90 49 NW 1008,3 9 0,0
25.09.2020 22:00:00 14,3 4,6 12,2 56 30 85 46 NW 1007,8 - 0,0
25.09.2020 21:00:00 14,8 4,5 12,3 57 31 79 43 NW 1007,0 - 0,0
25.09.2020 20:00:00 14,6 4,0 12,0 56 30 79 42 NW 1006,4 9 0,0
25.09.2020 19:00:00 14,5 5,8 12,4 50 27 77 42 NW 1005,9 - 0,0
25.09.2020 18:00:00 14,2 5,0 12,9 50 27 81 44 NW 1006,0 - 0,0
25.09.2020 17:00:00 14,0 5,6 12,6 51 28 76 41 NW 1005,2 - 0,0
25.09.2020 16:00:00 13,5 6,4 12,7 45 24 76 41 WNW 1004,8 - 0,0
25.09.2020 15:00:00 13,1 6,7 12,5 50 27 74 40 NW 1004,3 - 0,0
25.09.2020 14:00:00 12,6 7,9 10,6 51 28 80 43 NW 1003,3 - 0,0
25.09.2020 13:00:00 12,0 8,7 9,8 50 27 76 41 NW 1002,2 - 0,8
25.09.2020 12:00:00 11,1 8,1 9,8 49 26 81 44 NW 1001,2 - 0,6
25.09.2020 11:00:00 12,0 8,5 10,4 47 25 68 37 NW 1000,1 9 0,2
25.09.2020 10:00:00 11,8 8,5 9,6 48 26 74 40 NW 999,3 - 0,0
25.09.2020 09:00:00 12,2 6,9 9,5 51 27 76 41 NW 997,6 - 0,2
25.09.2020 08:00:00 12,3 8,8 9,1 36 19 61 33 NNW 996,2 12 0,0
25.09.2020 07:00:00 11,1 7,0 8,9 45 24 73 40 N 995,1 - 0,0
25.09.2020 06:00:00 9,6 8,5 8,6 18 10 42 23 SSW 993,1 - 1,0
25.09.2020 05:00:00 9,2 7,8 8,5 26 14 50 27 S 993,0 - 2,0
25.09.2020 04:00:00 9,7 6,8 8,1 23 12 42 23 S 993,4 - 0,0
25.09.2020 03:00:00 9,2 6,3 7,8 19 11 41 22 S 994,2 - 0,0
25.09.2020 02:00:00 9,2 6,3 7,8 25 14 46 25 S 994,9 12 0,0
25.09.2020 01:00:00 9,3 6,6 8,1 23 12 43 23 S 995,9 - 0,0
25.09.2020 00:00:00 9,7 7,0 8,1 24 13 43 23 S 996,2 - 0,0
24.09.2020 23:00:00 10,0 7,4 8,6 25 13 48 26 SSW 996,2 12 0,2
24.09.2020 22:00:00 10,6 8,2 9,5 20 11 39 21 SSW 996,5 - 0,2
24.09.2020 21:00:00 10,9 9,5 10,0 16 9 34 18 SSW 996,5 - 0,2
24.09.2020 20:00:00 11,1 9,4 10,2 18 10 30 16 S 995,9 - 0,0
24.09.2020 19:00:00 11,5 9,9 10,7 13 7 41 22 S 995,6 - 2,2
24.09.2020 18:00:00 10,8 9,6 11,1 21 11 67 36 SSW 997,4 - 1,8
24.09.2020 17:00:00 16,9 7,8 17,1 21 12 40 22 S 996,8 - 0,0
24.09.2020 16:00:00 16,7 7,9 17,3 22 12 43 23 S 998,6 - 0,0
24.09.2020 15:00:00 17,5 8,9 16,9 23 12 44 24 SSW 998,8 - 0,0
24.09.2020 14:00:00 16,1 8,8 16,5 19 11 46 25 S 999,8 - 0,0
24.09.2020 13:00:00 15,9 10,0 15,4 25 14 51 28 S 1000,5 - 0,0
24.09.2020 12:00:00 14,1 10,1 13,2 28 15 53 29 S 1000,8 - 0,0
24.09.2020 11:00:00 13,0 9,8 12,5 29 16 56 30 S 1000,9 12 0,0
24.09.2020 10:00:00 12,8 9,1 11,1 29 16 53 29 S 1001,1 - 0,0
24.09.2020 09:00:00 11,7 8,7 9,8 26 14 52 28 S 1001,6 - 0,0
24.09.2020 08:00:00 10,6 8,0 9,0 22 12 38 20 S 1001,9 12 0,0
24.09.2020 07:00:00 10,4 8,2 9,1 21 11 47 25 S 1002,7 - 0,0
24.09.2020 06:00:00 10,6 9,0 9,5 22 12 36 20 S 1003,2 - 0,0
24.09.2020 05:00:00 10,9 8,8 9,8 20 11 35 19 S 1003,6 10 0,0
24.09.2020 04:00:00 12,3 8,9 10,3 18 10 36 19 SSW 1003,5 - 0,0
24.09.2020 03:00:00 12,6 10,0 11,4 18 10 37 20 SSW 1003,6 - 0,2
24.09.2020 02:00:00 13,1 9,3 11,1 18 10 37 20 SSW 1003,2 10 0,0
24.09.2020 01:00:00 12,9 9,2 11,3 16 9 44 24 SSW 1002,8 - 0,0
24.09.2020 00:00:00 13,6 9,2 11,5 22 12 48 26 SW 1002,2 - 0,0
23.09.2020 23:00:00 14,2 9,4 12,1 26 14 49 27 SW 1002,1 10 0,0
23.09.2020 22:00:00 13,9 11,9 13,6 27 14 74 40 SW 1001,8 - 0,2
23.09.2020 21:00:00 15,4 13,4 15,0 34 18 58 31 WSW 1000,9 - 2,0
23.09.2020 20:00:00 16,5 14,7 15,6 18 10 33 18 S 1000,2 - 0,0
23.09.2020 19:00:00 17,0 15,0 16,2 16 9 34 19 SSW 1000,3 - 0,0
23.09.2020 18:00:00 16,2 15,4 15,4 17 9 56 30 SSW 1001,3 - 15,1
23.09.2020 17:00:00 18,8 15,8 17,8 13 7 35 19 SSW 1001,7 7 0,4
23.09.2020 16:00:00 19,9 14,9 18,3 19 10 37 20 S 1002,0 - 0,2
23.09.2020 15:00:00 17,7 15,1 17,1 9 5 42 23 SSW 1003,3 - 0,6
23.09.2020 14:00:00 20,7 13,2 21,4 16 9 34 18 SSW 1003,6 - 0,0
23.09.2020 13:00:00 19,2 13,6 19,9 19 11 36 20 SW 1004,5 - 0,0
23.09.2020 12:00:00 17,6 14,9 16,5 18 10 42 23 SSW 1004,9 - 0,0
23.09.2020 11:00:00 16,8 15,0 16,7 20 11 39 21 S 1004,5 - 1,0
23.09.2020 10:00:00 17,9 14,8 17,6 17 9 43 23 S 1004,6 - 0,0
23.09.2020 09:00:00 17,2 14,5 16,1 21 11 37 20 S 1004,3 - 0,0
23.09.2020 08:00:00 17,0 14,5 15,9 20 11 37 20 S 1004,5 10 0,0
23.09.2020 07:00:00 16,9 14,4 15,5 19 11 32 17 S 1004,8 - 0,0
23.09.2020 06:00:00 16,6 14,4 14,2 15 8 27 15 S 1005,2 - 0,0
23.09.2020 05:00:00 16,2 14,4 14,2 13 7 23 12 S 1005,5 10 0,0
23.09.2020 04:00:00 16,8 14,8 15,7 14 7 23 13 S 1006,1 - 0,0
23.09.2020 03:00:00 16,6 15,0 14,5 12 6 21 11 S 1006,6 - 0,0
23.09.2020 02:00:00 16,4 14,6 15,0 10 5 21 11 SSE 1006,9 16 0,0
23.09.2020 01:00:00 16,3 14,7 14,2 11 6 18 10 SSE 1007,6 - 0,0
23.09.2020 00:00:00 16,8 14,8 14,6 10 5 16 9 S 1008,0 - 0,0
22.09.2020 23:00:00 16,9 14,7 15,2 10 5 16 9 S 1008,4 9 0,0
22.09.2020 22:00:00 17,6 14,5 16,6 6 3 13 7 S 1008,7 - 0,0
22.09.2020 21:00:00 17,7 14,4 14,5 6 3 11 6 SSW 1008,9 - 0,0
22.09.2020 20:00:00 17,3 14,6 15,2 6 4 25 13 WSW 1008,7 - 0,0
22.09.2020 19:00:00 17,7 15,0 18,2 19 10 28 15 W 1009,1 - 0,0
22.09.2020 18:00:00 17,9 15,3 21,3 19 11 25 14 W 1009,3 - 0,0
22.09.2020 17:00:00 19,2 16,1 26,9 16 9 24 13 W 1009,8 5 0,0
22.09.2020 16:00:00 19,6 15,7 24,3 12 6 17 9 NW 1010,3 - 0,0
22.09.2020 15:00:00 19,3 15,4 23,2 8 4 11 6 NW 1010,7 - 0,0
22.09.2020 14:00:00 19,7 14,3 22,5 7 4 10 5 NW 1011,4 16 0,0
22.09.2020 13:00:00 18,9 13,7 22,3 6 4 9 5 NW 1011,8 - 0,0
22.09.2020 12:00:00 18,4 13,0 21,1 3 2 13 7 W 1012,4 - 0,0
22.09.2020 11:00:00 14,7 13,2 13,5 10 5 20 11 SSE 1012,9 9 0,0
22.09.2020 10:00:00 10,9 10,9 11,2 13 7 21 11 SSE 1012,8 - 0,0
22.09.2020 09:00:00 9,7 9,7 10,0 14 7 22 12 SSE 1013,0 - 0,0
22.09.2020 08:00:00 9,7 9,7 9,9 14 8 22 12 SSE 1012,8 - 0,0
22.09.2020 07:00:00 10,6 10,6 10,5 14 7 21 12 SSE 1013,0 - 0,0
22.09.2020 06:00:00 11,0 11,0 11,1 14 8 20 11 SSE 1013,4 - 0,0
22.09.2020 05:00:00 11,3 11,3 10,6 14 7 19 11 SSE 1013,6 - 0,0
22.09.2020 04:00:00 11,2 11,2 10,7 14 8 19 10 SSE 1014,1 - 0,2
22.09.2020 03:00:00 11,5 11,5 10,8 12 6 17 9 SSE 1014,6 - 0,0
22.09.2020 02:00:00 11,5 11,5 9,8 11 6 15 8 SSE 1014,9 0,3 0,0
22.09.2020 01:00:00 12,2 11,7 10,2 8 5 11 6 SSE 1015,3 - 0,0
22.09.2020 00:00:00 13,3 13,0 10,8 9 5 10 6 SSE 1015,8 - 0,2
21.09.2020 23:00:00 14,7 13,7 10,9 7 4 8 4 SSE 1016,0 - 0,0
21.09.2020 22:00:00 16,2 14,9 12,0 5 3 10 6 SE 1015,8 - 0,0
21.09.2020 21:00:00 17,4 15,7 14,6 8 4 16 9 NE 1015,7 - 0,0
21.09.2020 20:00:00 17,8 15,8 15,6 9 5 19 11 NNE 1015,6 - 0,0
21.09.2020 19:00:00 18,6 16,0 18,6 8 4 20 11 NNE 1015,8 - 0,0
21.09.2020 18:00:00 19,2 15,9 23,9 9 5 23 12 NNE 1015,9 - 0,0
21.09.2020 17:00:00 19,8 15,6 26,9 11 6 25 13 N 1016,2 - 0,0
21.09.2020 16:00:00 19,7 15,1 21,8 11 6 23 12 NNE 1016,5 - 0,0
21.09.2020 15:00:00 19,6 14,2 20,7 11 6 24 13 NNE 1016,9 - 0,0
21.09.2020 14:00:00 18,9 12,2 20,7 13 7 22 12 N 1017,3 - 0,0
21.09.2020 13:00:00 18,7 12,4 21,7 8 5 15 8 NNE 1017,3 - 0,0
21.09.2020 12:00:00 18,0 12,0 23,4 8 5 16 9 NNE 1017,4 - 0,0
21.09.2020 11:00:00 17,4 11,9 17,2 6 3 11 6 NNE 1017,4 10 0,0
21.09.2020 10:00:00 13,5 10,8 11,2 6 3 14 8 SSE 1017,4 - 0,0
21.09.2020 09:00:00 10,6 9,2 8,9 10 5 14 7 SSE 1017,2 - 0,0
21.09.2020 08:00:00 10,3 9,4 8,4 9 5 12 7 SSE 1017,1 - 0,0
21.09.2020 07:00:00 11,3 10,0 9,0 9 5 11 6 SSE 1016,6 - 0,0
21.09.2020 06:00:00 12,9 10,8 9,2 5 3 10 5 E 1016,6 - 0,0
21.09.2020 05:00:00 14,4 12,1 11,4 5 3 14 8 E 1016,5 - 0,0
21.09.2020 04:00:00 15,3 12,2 12,6 8 4 18 10 ENE 1016,9 - 0,0
21.09.2020 03:00:00 15,8 11,8 13,2 10 5 16 9 NE 1017,1 - 0,0
21.09.2020 02:00:00 16,3 11,9 13,8 12 7 17 9 ENE 1017,2 18 0,0
21.09.2020 01:00:00 16,5 11,2 13,7 11 6 17 9 ENE 1017,2 - 0,0
21.09.2020 00:00:00 17,1 12,8 14,8 11 6 25 14 ENE 1017,5 - 0,0
20.09.2020 23:00:00 17,9 13,6 16,2 18 10 40 22 NE 1017,5 - 0,0
20.09.2020 22:00:00 18,7 15,8 17,5 26 14 40 21 NE 1017,5 - 0,0
20.09.2020 21:00:00 19,1 16,3 17,9 24 13 39 21 NE 1016,9 - 0,0
20.09.2020 20:00:00 19,2 16,8 18,3 25 14 37 20 NE 1016,3 - 0,0
20.09.2020 19:00:00 19,5 17,1 20,0 21 12 32 17 NE 1016,0 - 0,0
20.09.2020 18:00:00 20,0 17,2 23,2 21 11 32 18 NE 1015,7 - 0,0
20.09.2020 17:00:00 20,3 16,7 23,4 19 11 29 16 NE 1015,9 - 0,0
20.09.2020 16:00:00 20,2 16,4 24,8 14 8 22 12 NNE 1015,9 - 0,0
20.09.2020 15:00:00 20,2 16,4 23,9 11 6 23 12 NNE 1016,0 - 0,0
20.09.2020 14:00:00 20,5 16,3 23,7 16 9 23 13 NNE 1016,2 13 0,0
20.09.2020 13:00:00 20,6 16,2 26,2 13 7 24 13 NNE 1016,1 - 0,0

tt = temperature
td = dewpoint
tt 5cm = temperature 5cm
ff = wind speed
fx = gusts
dd = wind direction
ppp = reduced air pressure
vv = visibility
rr = precipitation

Next stations